Regional Weather Roundup
Issued by NWS

Home | Current Version | Previous Version | Text Only | Print | Product List | Glossary On
Versions: 1 2 3 4 5 6 7 8 9 10 11 12 13 14 15 16 17 18 19 20 21 22 23 24 25 26 27 28 29 30 31 32 33 34 35 36 37 38 39 40 41 42 43 44 45 46 47 48 49 50
000
ASUS44 KLIX 292211
RWRLA
LOUISIANA WEATHER ROUNDUP
NATIONAL WEATHER SERVICE NEW ORLEANS LA
500 PM CDT THU SEP 29 2016

NOTE: "FAIR" INDICATES FEW OR NO CLOUDS BELOW 12,000 FEET WITH NO
      SIGNIFICANT WEATHER AND/OR OBSTRUCTIONS TO VISIBILITY.
      SKY/WX - SKY CONDITION AND SIGNIFICANT WEATHER.
      TMP - AIR TEMPERATURE.    DP   - DEWPOINT TEMPERATURE.
      RH  - RELATIVE HUMIDITY.  PRES - PRESSURE.
      HX  - HEAT INDEX.         WCI  - WIND CHILL INDEX.

*  THESE STATIONS ARE NOT NWS OR FAA STATIONS AND ARE NOT UNDER
   NWS QUALITY CONTROL.

LAZ040-048-061>063-065-066-069-292300-
SOUTHEAST LOUISIANA

CITY           SKY/WX    TMP DP  RH WIND       PRES   REMARKS
N.O. AUDUBON   NOT AVBL
N.O. INTL ARPT MOSUNNY   85  63  47 N9        30.03S
N.O. LAKEFRONT SUNNY     84  63  49 NW13      30.03S
N.O. DOWNTOWN*   N/A     84  63  49 NW8       30.04S
RESERVE*       FAIR      84  62  48 NW10      30.04R
SLIDELL        SUNNY     82  62  50 N12       30.02S
BATON ROUGE    SUNNY     81  56  42 N8        30.06S
BOOTHVILLE     SUNNY     84  66  54 N9        30.01S
BELLE CHASSE   MOSUNNY   83  64  52 N9        30.02S
BOGALUSA*      FAIR      82  51  34 N8        30.06S
GALLIANO*      CLEAR     86  55  33 N9        30.02R
NEW ROADS*     FAIR      77  52  41 MISG      30.08S
GONZALES*      FAIR      82  62  50 N9        30.04R
HAMMOND*       SUNNY     82  52  34 N7        30.05R
HOUMA*         MOSUNNY   84  66  54 N9        30.02R
PORT FOURCHON* CLEAR     84  64  51 W8        30.02S

$$

LAZ041-044-053-054-292300-
SOUTHWEST LOUISIANA

CITY           SKY/WX    TMP DP  RH WIND       PRES   REMARKS
LAKE CHARLES   SUNNY     82  57  42 N9        30.07F
LAFAYETTE      SUNNY     82  54  37 N15       30.07R
PATTERSON      SUNNY     83  67  58 N10       30.04S
SALT POINT     NOT AVBL
NEW IBERIA     SUNNY     83  56  39 N15       30.06S
CHENAULT AIRPK SUNNY     82  57  42 N8        30.08F

$$

LAZ027-028-292300-
CENTRAL LOUISIANA

CITY           SKY/WX    TMP DP  RH WIND       PRES   REMARKS
FORT POLK      SUNNY     77  51  40 N9        30.10F
ALEXANDRIA INT SUNNY     78  50  37 N12       30.09S
ALEXANDRIA     SUNNY     78  52  40 MISG      30.11S

$$

LAZ001-002-292300-
NORTHWEST LOUISIANA

CITY           SKY/WX    TMP DP  RH WIND       PRES   REMARKS
SHREVEPORT     MOSUNNY   78  49  35 N9        30.16S
BARKSDALE AFB  SUNNY     77  48  35 N8        30.16S
DTN SHREVEPORT SUNNY     77  50  38 N5        30.16S

$$

LAZ014-016-292300-
NORTHEAST LOUISIANA

CITY           SKY/WX    TMP DP  RH WIND       PRES   REMARKS
MONROE         SUNNY     77  52  41 N10       30.14S
TALLULAH       SUNNY     77  49  37 NW8       30.10F

$$




USA.gov is the U.S. government's official web portal to all federal, state and local government web resources and services.